This is the latest recevied weather packets stored in our database for station/object W4TJP. If no packets are shown the sender has not sent any weather packets the latest 10 day(s).
| Time | Temp. | Humidity | Pressure | Rain* | Wind** | Luminosity | Snow |
|---|---|---|---|---|---|---|---|
| 1777921934 | 24.44° C | 49% | 1013.3 hPa | 0 mm | - | 685 W/m² | - |
| 1777921630 | 25° C | 48% | 1013.2 hPa | 0 mm | - | 698 W/m² | - |
| 1777921326 | 25.56° C | 49% | 1013.1 hPa | 0 mm | - | 677 W/m² | - |
| 1777921023 | 25° C | 49% | 1013.2 hPa | 0 mm | - | 694 W/m² | - |
| 1777920719 | 25° C | 49% | 1013.4 hPa | 0 mm | - | 716 W/m² | - |
| 1777920415 | 25° C | 49% | 1013.3 hPa | 0 mm | - | 736 W/m² | - |
| 1777920111 | 24.44° C | 51% | 1013.5 hPa | 0 mm | - | 734 W/m² | - |
| 1777919808 | 24.44° C | 50% | 1013.6 hPa | 0 mm | - | 711 W/m² | - |
| 1777919505 | 23.89° C | 51% | 1013.6 hPa | 0 mm | - | 686 W/m² | - |
| 1777919203 | 23.89° C | 51% | 1013.7 hPa | 0 mm | - | 686 W/m² | - |
| 1777918900 | 24.44° C | 49% | 1013.5 hPa | 0 mm | - | 632 W/m² | - |
| 1777918597 | 24.44° C | 49% | 1013.7 hPa | 0 mm | - | 730 W/m² | - |
| 1777918295 | 25° C | 51% | 1013.6 hPa | 0 mm | - | 720 W/m² | - |
| 1777917994 | 23.89° C | 51% | 1013.6 hPa | 0 mm | - | 711 W/m² | - |
| 1777917692 | 24.44° C | 49% | 1013.6 hPa | 0 mm | - | 706 W/m² | - |
| 1777917389 | 24.44° C | 49% | 1013.7 hPa | 0 mm | - | 643 W/m² | - |
| 1777917086 | 24.44° C | 51% | 1013.7 hPa | 0 mm | - | 576 W/m² | - |
| 1777916784 | 24.44° C | 50% | 1013.8 hPa | 0 mm | - | 689 W/m² | - |
| 1777916480 | 23.89° C | 52% | 1013.8 hPa | 0 mm | - | 743 W/m² | - |
| 1777916177 | 24.44° C | 53% | 1013.9 hPa | 0 mm | - | 717 W/m² | - |
| 1777915875 | 23.89° C | 50% | 1013.7 hPa | 0 mm | - | 703 W/m² | - |
| 1777915570 | 23.89° C | 51% | 1014 hPa | 0 mm | - | 714 W/m² | - |
| 1777915268 | 23.89° C | 53% | 1014 hPa | 0 mm | - | 665 W/m² | - |
| 1777914964 | 23.33° C | 54% | 1014.1 hPa | 0 mm | - | 679 W/m² | - |
| 1777914661 | 23.33° C | 50% | 1013.9 hPa | 0 mm | - | 682 W/m² | - |
* Rain latest hour (hover to see other rain measurements)
** Current wind speed in m/s (hover to see current wind gust speed)